Regional Weather Roundup
Issued by NWS

Home | Current Version | Previous Version | Graphics & Text | Print | Product List | Glossary On
Versions: 1 2 3 4 5 6 7 8 9 10 11 12 13 14 15 16 17 18 19 20 21 22 23 24 25 26 27 28 29 30 31 32 33 34 35 36 37 38 39 40 41 42 43 44 45 46 47 48 49 50
000
ASUS43 KTOP 011159
RWRKS

WEATHER ROUNDUP FOR KANSAS
NATIONAL WEATHER SERVICE GOODLAND KS
600 AM CST SUN FEB 01 2015

NOTE:  "FAIR" INDICATES FEW OR NO CLOUDS BELOW 12,000 FEET WITH NO
SIGNIFICANT WEATHER AND/OR OBSTRUCTIONS TO VISIBILITY.

KSZ001>006-013>018-027>032-041>047-011300-
NORTHWEST KANSAS

CITY           SKY/WX    TMP DP  RH WIND       PRES   REMARKS
GOODLAND       PTCLDY    19  16  88 N21G31    30.04R WCI   3
6HR MIN TEMP:  19; 6HR MAX TEMP:  27; 6HR PCP: TRACE;

HAYS           CLOUDY    21  10  63 N30G40    29.97R WCI   3
HILL CITY      MIX PCPN  19  13  77 N29G38    30.02R WCI   0
6HR MIN TEMP:  19; 6HR MAX TEMP:  33; 6HR PCP: TRACE;

RUSSELL        LGT SNOW  24  20  84 NW26G40   29.95R FOG     WCI   8
6HR MIN TEMP:  24; 6HR MAX TEMP:  40; 6HR PCP:  0.05;

$$

KSZ061>065-074>080-084>089-011300-
SOUTHWEST KANSAS

CITY           SKY/WX    TMP DP  RH WIND       PRES   REMARKS
DODGE CITY     CLOUDY    24  19  81 NW28G40   29.96R WCI   7
6HR MIN TEMP:  24; 6HR MAX TEMP:  36; 6HR PCP:  0.03;

ELKHART          N/A     32  21  64 N22         N/A  WCI  19
GARDEN CITY    PTCLDY    23  18  81 N28G36    30.01R WCI   6
6HR MIN TEMP:  23; 6HR MAX TEMP:  34;

LIBERAL        CLOUDY    30  25  80 N31G38    30.00R WCI  15
$$

KSZ066>073-081>083-090>101-011300-
SOUTHEAST KANSAS

CITY           SKY/WX    TMP DP  RH WIND       PRES   REMARKS
CHANUTE        LGT RAIN  41  41 100 SW8       29.72S FOG
6HR MIN TEMP:  40; 6HR MAX TEMP:  41; 6HR PCP:  0.20;

COFFEYVILLE    LGT RAIN  43  42  97 SW8       29.74S
6HR MIN TEMP:  41; 6HR MAX TEMP:  43;

HUTCHINSON     CLOUDY    31  26  82 NW30G40   29.85R WCI  16
6HR MIN TEMP:  31; 6HR MAX TEMP:  43; 6HR PCP:  0.11;

MEDICINE LODGE   N/A     31  27  85 N23G35    29.90R WCI  18
NEWTON         CLOUDY    32  27  80 NW28G38   29.79R WCI  18
PARSONS        LGT RAIN  42  42 100 SW7       29.74S FOG
6HR MIN TEMP:  41; 6HR MAX TEMP:  42;

WICHITA INTL   CLOUDY    34  31  88 NW23G35   29.81R WCI  22
6HR MIN TEMP:  34; 6HR MAX TEMP:  42; 6HR PCP:  0.03;

WICHITA JABRA  CLOUDY    34  34 100 NW23G33   29.79R WCI  22
6HR MIN TEMP:  34; 6HR MAX TEMP:  42; 6HR PCP:  0.09;

WICHITA MCCONL FRZ RAIN  34  32  93 NW21G31   29.78R WCI  22
WINFIELD       LGT RAIN  37  30  75 NW30G37   29.80R WCI  24
6HR MIN TEMP:  37; 6HR MAX TEMP:  43; 6HR PCP:  0.04;

$$

KSZ007>012-019>026-033>040-048>060-102>105-011300-
NORTHEAST KANSAS

CITY           SKY/WX    TMP DP  RH WIND       PRES   REMARKS
CONCORDIA      MIX PCPN  24  22  91 NW25G39   29.87R FOG     WCI   8
6HR MIN TEMP:  24; 6HR MAX TEMP:  34; 6HR PCP:  0.12;

EMPORIA        LGT RAIN  40  40 100 NW13      29.70S WCI  32
6HR MIN TEMP:  38; 6HR MAX TEMP:  41; 6HR PCP:  0.18;

LAWRENCE       LGT RAIN  33  33 100 CALM      29.71F FOG
6HR MIN TEMP:  32; 6HR MAX TEMP:  34; 6HR PCP:  0.23;

MANHATTAN      LGT SNOW  33  32  96 VRB6      29.78R FOG
6HR MIN TEMP:  33; 6HR MAX TEMP:  35; 6HR PCP:  0.19;

OLATHE IND     LGT RAIN  37  37 100 S6        29.70F FOG
6HR MIN TEMP:  34; 6HR MAX TEMP:  37; 6HR PCP:  0.26;

OLATHE EXE     LGT RAIN  36  35  96 S6        29.69F FOG
6HR MIN TEMP:  33; 6HR MAX TEMP:  36; 6HR PCP:  0.23;

SALINA         CLOUDY    31  27  85 NW32G39   29.84R WCI  16
6HR MIN TEMP:  31; 6HR MAX TEMP:  41; 6HR PCP:  0.09;

TOPEKA BILLARD LGT RAIN  34  33  96 NW6       29.72S FOG
6HR MIN TEMP:  33; 6HR MAX TEMP:  34; 6HR PCP:  0.18;

TOPEKA FORBES  LGT RAIN  38  36  92 NW8       29.70S FOG
6HR MIN TEMP:  35; 6HR MAX TEMP:  39; 6HR PCP:  0.22;

$$


USA.gov is the U.S. government's official web portal to all federal, state and local government web resources and services.